CZ-6A DEB

Satellite information

Favourite Embed

Satellite Type and Status

DEBRISIN ORBIT

Key statistics

Satellite CZ-6A DEB at a glance.

Uptime

908

Days in orbit

Revolutions

≈ 14.2

Per day

Orbit

SSO

Sun Synchronous Orbit

Inclination

98.8

Latest

Satellite identification and parameters

Extended collection of information and parameters for CZ-6A DEB.

Object identification

Identified? True

Debris? True

Object name: CZ-6A DEB

International designator: 2022-151EF

Object number (NORAD): 54407

Object ID (CCSDS): 54407

Country: PEOPLES REPUBLIC OF CHINA (PRC)

Current information (Y/N): Y

RCS size: SMALL

Orbital parameters

Period: 101.431 minutes

Inclination: 98.7692 deg

SMA: 7204.559 km

Apoapsis: 859.669 km

Periapsis: 793.18 km

RAAN: 132.7206 deg

Eccentricy: 0.0046144

Argument of periapsis: 62.113 deg

Mean anomaly: 298.4709 deg

Mean motion: 14.19683794 rev/day

Mean motion (dot): 0.00002903 rev/day2

B* drag term: 0.0013789 1/REarth

Two-line elements (TLE)

Creation date: May 7, 2025, 3:14 a.m.

Reference frame: TEME

Reference center: EARTH

Epoch: May 6, 2025, 10:49 p.m. UTC

TLE line 0: 0 CZ-6A DEB

TLE line 1: 1 54407U 22151EF 25126.95094247 .00002903 00000-0 13789-2 0 9991

TLE line 2: 2 54407 98.7692 132.7206 0046144 62.1130 298.4709 14.19683794128019

Live tracking on map

Real-time ground track for satellite CZ-6A DEB.

In-orbit conjunctions

A list of the most updated potential collisions computed for object CZ-6A DEB.

Target Orbit TCA Probability of collision Miss distance Type
COSMOS 1275 DEB LEO 2025-02-19 15:46:14 0.0001014118 433.0 (m) DEBRIS
FENGYUN 1C DEB SSO 2024-09-25 01:50:57 0.0004313639 668.0 (m) DEBRIS

Associated space launch

Chinese satellite reported for atmospheric/ocean/environmental/spatial parameter research purposes, details TBD.

CZ-6A DEB was lifted into orbit during the mission ‘Long March 6A | Yunhai 3’, on board a Long March 6A space rocket.

The launch took place on Nov. 11, 2022, 10:52 p.m. from Launch Complex 9A.

For more information about the launch, click the button.

Launch to space Long March 6A | Yunhai 3
Long March 6A | Yunhai 3

Agency: N/A

Status: Launch Successful

Launch date: Nov. 11, 2022, 10:52 p.m. UTC

Rocket: Long March 6A

Launch pad: Launch Complex 9A

Location: Taiyuan Satellite Launch Center, People's Republic of China

...

Latest news about this satellite

There are no fresh news available about this satellite. Check back as we update our databases every day.


Newsletter sign-up

Weekly statistics, charts and insights to help you stay on top of the space industry.